This demonstration page uses our WeatherBlox Daily Observations layout. Learn more.

41.86663, -103.66717

Hourly Observations for May 7, 2019

Temp ( °F °C ) Dew Point ( °F °C ) Humidity (%) Winds ( mph kmh ) Pressure ( in mb ) Visibility ( mi km ) Precip ( " mm )
12:53 am 00:53 Cloudy 42 5.6 41 5 96 96 ENE 6 9 30.11 1020 10 16.0934 0 0
1:53 am 01:53 Cloudy 43 6.1 41 5 93 93 ESE 14 22 30.09 1019 10 16.0934 0 0
2:53 am 02:53 Cloudy with Mist and Fog 42 5.6 41 5 96 96 ESE 14 22 30.07 1018 4 6.43736 0 0
3:00 am 03:00 Cloudy with Mist and Fog 43 6 41 5 93 93 ESE 15 24 30.12 1020 5 8.0467 0 0
3:13 am 03:13 Cloudy with Mist and Fog 42 5.6 41 5 96 96 SE 13 20 30.13 1020 4 6.43736 0 0
3:23 am 03:23 Cloudy with Mist and Fog 42 5.6 41 5 96 96 SE 10 17 30.13 1020 3 4.82802 0 0
3:53 am 03:53 Cloudy with Mist and Fog 41 5 41 5 100 100 SE 13 20 30.1 1019 3 4.82802 0 0
4:14 am 04:14 Cloudy with Light Rain 41 5 41 5 100 100 SE 16 26 30.14 1021 2.5 4.02335 0 0.0254
4:21 am 04:21 Cloudy with Light Rain 41 5 41 5 100 100 ESE 16 26 30.13 1020 3 4.82802 0 0.0254
4:53 am 04:53 Cloudy with Mist and Fog 41 5 41 5 100 100 SE 15 24 30.09 1019 4 6.43736 0.01 0.254
5:29 am 05:29 Cloudy 41 5 41 5 100 100 SE 15 24 30.11 1020 8 12.87472 0 0
5:45 am 05:45 Cloudy 41 5 41 5 100 100 SE 13 20 30.11 1020 7 11.26538 0 0
5:53 am 05:53 Cloudy 41 5 41 5 100 100 SE 15 24 30.08 1019 7 11.26538 0 0
6:31 am 06:31 Cloudy with Mist and Fog 41 5 41 5 100 100 ESE 13 20 30.12 1020 1.75 2.816345 0 0
6:42 am 06:42 Cloudy with Fog 41 5 41 5 100 100 ESE 15 24 30.13 1020 0.5 0.80467 0 0
6:53 am 06:53 Cloudy with Fog 41 5 41 5 100 100 SE 13 20 30.1 1019 0.5 0.80467 0 0
7:26 am 07:26 Cloudy with Mist and Fog 41 5 39 4 93 93 ESE 16 26 30.12 1020 2 3.21868 0 0
7:34 am 07:34 Cloudy with Mist and Fog 41 5 40 4.4 96 96 SE 15 24 30.12 1020 5 8.0467 0 0
7:45 am 07:45 Cloudy with Mist and Fog 40 4.4 40 4.4 100 100 ESE 18 30 30.13 1020 1.75 2.816345 0 0
7:53 am 07:53 Cloudy with Mist and Fog 40 4.4 40 4.4 100 100 ESE 16 26 30.1 1019 1 1.60934 0 0
8:09 am 08:09 Cloudy with Mist and Fog 39 4 39 4 100 100 ESE 20 31 30.13 1020 0.75 1.207005 0 0
8:37 am 08:37 Cloudy with Mist and Fog 40 4.4 40 4.4 100 100 ESE 17 28 30.12 1020 1 1.60934 0 0
8:53 am 08:53 Cloudy with Mist and Fog 41 5 40 4.4 96 96 ESE 16 26 30.09 1019 2 3.21868 0 0.0254
9:04 am 09:04 Cloudy with Mist and Fog 41 5 39 4 93 93 ESE 15 24 30.11 1020 1.5 2.41401 0 0
9:24 am 09:24 Cloudy with Mist and Fog 41 5 41 5 100 100 SE 15 24 30.11 1020 2 3.21868 0 0
9:34 am 09:34 Cloudy with Mist and Fog 41 5 41 5 100 100 ESE 14 22 30.1 1019 4 6.43736 0 0
9:53 am 09:53 Cloudy 42 5.6 41 5 96 96 ESE 13 20 30.07 1018 10 16.0934 0 0
10:18 am 10:18 Cloudy 43 6 41 5 93 93 SE 14 22 30.09 1019 10 16.0934 0 0
10:53 am 10:53 Cloudy 42 5.6 41 5 96 96 SE 12 19 30.09 1019 10 16.0934 0 0
11:53 am 11:53 Cloudy 44 6.7 43 6.1 96 96 ESE 14 22 30.05 1018 10 16.0934 0 0
12:53 pm 12:53 Cloudy 46 7.8 44 6.7 93 93 SE 18 30 29.99 1016 10 16.0934 0 0
1:53 pm 13:53 Cloudy 47 8.3 44 6.7 90 90 SE 15 24 29.98 1015 10 16.0934 0 0
2:53 pm 14:53 Cloudy with Light Rain 48 8.9 45 7.2 89 89 SE 15 24 29.95 1014 10 16.0934 0 0.0254
3:20 pm 15:20 Cloudy with Heavy Rain 47 8.3 45 7.2 93 93 SE 18 30 29.92 1013 2.5 4.02335 0.06 1.524
3:51 pm 15:51 Cloudy with Light Rain 48 9 46 8 94 94 ESE 17 28 29.9 1013 5 8.0467 0.19 4.826
3:53 pm 15:53 Cloudy with Light Rain 48 8.9 47 8.3 96 96 ESE 18 30 29.91 1013 6 9.65604 0.19 4.826
4:07 pm 16:07 Cloudy 49 9.4 48 8.9 97 97 ESE 20 31 29.88 1012 10 16.0934 0 0.0254
4:44 pm 16:44 Cloudy 50 10 48 8.9 93 93 ESE 21 33 29.85 1011 10 16.0934 0 0.0254
4:53 pm 16:53 Cloudy 49 9.4 47 8.3 93 93 ESE 22 35 29.88 1012 10 16.0934 0 0.0254
5:33 pm 17:33 Cloudy 48 8.9 46 7.8 93 93 E 22 35 29.86 1011 10 16.0934 0 0
5:53 pm 17:53 Cloudy 47 8.3 45 7.2 93 93 ESE 24 39 29.89 1012 10 16.0934 0 0
6:53 pm 18:53 Cloudy 45 7.2 44 6.7 97 97 ESE 22 35 29.89 1012 10 16.0934 0 0
7:53 pm 19:53 Cloudy 44 6.7 43 6.1 96 96 ESE 18 30 29.91 1013 10 16.0934 0 0
8:32 pm 20:32 Cloudy 44 6.7 43 6.1 96 96 ESE 14 22 29.93 1013 10 16.0934 0 0
8:53 pm 20:53 Cloudy 44 6.7 44 6.7 100 100 ESE 14 22 29.92 1013 10 16.0934 0 0
9:45 pm 21:45 Cloudy with Mist and Fog 43 6.1 43 6.1 100 100 SE 13 20 29.94 1014 2.5 4.02335 0 0
9:53 pm 21:53 Cloudy with Mist and Fog 43 6.1 43 6.1 100 100 SE 12 19 29.94 1014 2.5 4.02335 0 0
10:11 pm 22:11 Cloudy with Mist and Fog 43 6 43 6 100 100 SE 8 13 29.95 1014 1.75 2.816345 0 0
10:19 pm 22:19 Cloudy with Mist and Fog 43 6.1 43 6.1 100 100 ESE 6 9 29.95 1014 2.5 4.02335 0 0
10:35 pm 22:35 Cloudy with Mist and Fog 43 6 43 6 100 100 ESE 6 9 29.96 1014 3 4.82802 0 0
10:53 pm 22:53 Cloudy with Mist and Fog 43 6.1 43 6.1 100 100 E 6 9 29.95 1014 4 6.43736 0 0
11:19 pm 23:19 Cloudy with Mist and Fog 43 6.1 43 6.1 100 100 ENE 6 9 29.94 1014 2.5 4.02335 0 0
11:53 pm 23:53 Cloudy with Mist and Fog 43 6.1 43 6.1 100 100 ENE 7 11 29.93 1014 2.5 4.02335 0 0.0254

Powered by AerisWeather